| time (UTC) | temp C | wind direction | speed KPH | gust KPH | rain 1hr cm | rain 24hr cm | rain mn cm | humidity % | barometer mb |
| 20260505210005 | 11 | 45 | 9.7 | 16.1 | 0.00 | 1.12 | 0.03 | 83 | 1009.3 |
| 20260505205407 | 11 | 58 | 6.4 | 8.0 | 0.00 | 1.22 | 0.03 | 84 | 1009.1 |
| 20260505204503 | 11 | 64 | 9.7 | 12.9 | 0.00 | 1.57 | 0.03 | 83 | 1009.3 |
| 20260505203603 | 11 | 47 | 6.4 | 8.0 | 0.00 | 1.70 | 0.03 | 85 | 1009.3 |
| 20260505202915 | 11 | 51 | 4.8 | 6.4 | 0.00 | 1.73 | 0.03 | 88 | 1009.2 |
| 20260505201804 | 11 | 65 | 1.6 | 4.8 | 0.00 | 1.78 | 0.03 | 93 | 1009.3 |
| 20260505201120 | 11 | 67 | 0.0 | 1.6 | 0.00 | 1.80 | 0.03 | 93 | 1009.5 |
| 20260505200004 | 11 | 82 | 0.0 | 1.6 | 0.00 | 1.80 | 0.03 | 93 | 1009.2 |
| 20260505195407 | 11 | 81 | 1.6 | 3.2 | 0.00 | 1.83 | 0.03 | 92 | 1008.9 |
| 20260505194503 | 11 | 75 | 3.2 | 3.2 | 0.00 | 1.83 | 0.03 | 92 | 1008.9 |
| 20260505193605 | 11 | 71 | 3.2 | 4.8 | 0.00 | 1.83 | 0.03 | 92 | 1009.1 |
| 20260505192703 | 11 | 68 | 3.2 | 4.8 | 0.00 | 1.93 | 0.03 | 92 | 1008.7 |
| 20260505191805 | 11 | 75 | 3.2 | 4.8 | 0.00 | 1.93 | 0.03 | 92 | 1008.9 |
| 20260505191121 | 11 | 67 | 3.2 | 6.4 | 0.00 | 1.98 | 0.03 | 92 | 1008.9 |
| 20260505190004 | 11 | 64 | 4.8 | 6.4 | 0.00 | 2.08 | 0.03 | 92 | 1008.7 |
| 20260505185405 | 11 | 57 | 4.8 | 4.8 | 0.00 | 2.26 | 0.03 | 92 | 1008.6 |
| 20260505184504 | 11 | 51 | 4.8 | 6.4 | 0.00 | 2.49 | 0.03 | 92 | 1008.7 |
| 20260505183605 | 11 | 56 | 4.8 | 4.8 | 0.00 | 3.20 | 0.03 | 92 | 1008.8 |
| 20260505182706 | 11 | 63 | 3.2 | 4.8 | 0.00 | 3.73 | 0.03 | 92 | 1008.8 |
| 20260505181806 | 11 | 64 | 6.4 | 8.0 | 0.00 | 4.22 | 0.03 | 91 | 1008.7 |
| 20260505180905 | 11 | 57 | 6.4 | 8.0 | 0.00 | 4.37 | 0.03 | 91 | 1008.7 |
| 20260505180003 | 12 | 77 | 4.8 | 6.4 | 0.00 | 4.37 | 0.03 | 91 | 1008.8 |
| 20260505175403 | 12 | 67 | 4.8 | 6.4 | 0.00 | 4.37 | 0.03 | 91 | 1008.5 |
| 20260505174504 | 12 | 67 | 6.4 | 8.0 | 0.00 | 4.37 | 0.03 | 91 | 1008.6 |
| 20260505173603 | 12 | 79 | 4.8 | 9.7 | 0.00 | 4.37 | 0.03 | 91 | 1008.7 |
| 20260505172705 | 12 | 65 | 6.4 | 9.7 | 0.00 | 4.37 | 0.03 | 90 | 1008.7 |
| 20260505171805 | 12 | 60 | 6.4 | 8.0 | 0.00 | 4.37 | 0.03 | 90 | 1008.7 |
| 20260505170905 | 12 | 69 | 8.0 | 9.7 | 0.00 | 4.37 | 0.03 | 90 | 1008.7 |
| 20260505170005 | 12 | 58 | 8.0 | 9.7 | 0.00 | 4.37 | 0.03 | 90 | 1009.0 |
| 20260505165404 | 12 | 54 | 8.0 | 9.7 | 0.00 | 4.37 | 0.03 | 91 | 1008.8 |
| 20260505164505 | 12 | 48 | 6.4 | 8.0 | 0.00 | 4.37 | 0.03 | 91 | 1008.9 |
| 20260505163605 | 12 | 46 | 8.0 | 9.7 | 0.00 | 4.37 | 0.03 | 91 | 1008.9 |
| 20260505162917 | 12 | 59 | 8.0 | 9.7 | 0.00 | 4.37 | 0.03 | 91 | 1008.8 |
| 20260505161803 | 12 | 48 | 8.0 | 9.7 | 0.00 | 4.37 | 0.03 | 92 | 1008.8 |
| 20260505160905 | 12 | 68 | 8.0 | 9.7 | 0.00 | 4.37 | 0.03 | 92 | 1008.9 |
| 20260505152913 | 12 | 48 | 4.8 | 8.0 | 0.00 | 4.37 | 0.03 | 93 | 1009.0 |
| 20260505151803 | 12 | 56 | 4.8 | 9.7 | 0.00 | 4.37 | 0.03 | 93 | 1009.0 |
| 20260505150903 | 12 | 58 | 6.4 | 8.0 | 0.00 | 4.37 | 0.03 | 93 | 1009.3 |
| 20260505124503 | 11 | 70 | 8.0 | 12.9 | 0.00 | 4.37 | 0.03 | 99 | 1009.9 |
| 20260505123605 | 10 | 39 | 8.0 | 12.9 | 0.00 | 4.37 | 0.03 | 99 | 1009.9 |
| 20260505122705 | 11 | 34 | 6.4 | 9.7 | 0.00 | 4.37 | 0.03 | 99 | 1009.9 |
| 20260505121803 | 11 | 52 | 6.4 | 8.0 | 0.00 | 4.37 | 0.03 | 99 | 1010.1 |
| 20260505120905 | 11 | 55 | 8.0 | 8.0 | 0.00 | 4.37 | 0.03 | 99 | 1010.0 |
| 20260505120007 | 11 | 61 | 8.0 | 9.7 | 0.00 | 4.37 | 0.03 | 99 | 1010.0 |
| 20260505115406 | 10 | 60 | 8.0 | 9.7 | 0.00 | 4.37 | 0.03 | 99 | 1010.1 |
| 20260505114716 | 10 | 57 | 6.4 | 9.7 | 0.00 | 4.37 | 0.03 | 99 | 1010.1 |
| 20260505113603 | 10 | 41 | 6.4 | 8.0 | 0.00 | 4.37 | 0.03 | 99 | 1010.3 |
| 20260505112703 | 10 | 38 | 9.7 | 9.7 | 0.00 | 4.37 | 0.03 | 99 | 1010.3 |
| 20260505111803 | 10 | 44 | 8.0 | 9.7 | 0.00 | 4.37 | 0.03 | 99 | 1010.4 |
| 20260505110905 | 10 | 62 | 6.4 | 8.0 | 0.00 | 4.37 | 0.03 | 99 | 1010.5 |
| 20260505101803 | 10 | 45 | 8.0 | 9.7 | 0.00 | 4.37 | 0.03 | 99 | 1010.4 |
| 20260505100908 | 10 | 56 | 6.4 | 6.4 | 0.00 | 4.37 | 0.03 | 99 | 1010.6 |
| 20260505100004 | 10 | 60 | 6.4 | 9.7 | 0.00 | 4.37 | 0.03 | 99 | 1010.4 |
| 20260505095404 | 10 | 45 | 8.0 | 11.3 | 0.00 | 4.37 | 0.03 | 99 | 1010.5 |
| 20260505094504 | 11 | 52 | 6.4 | 8.0 | 0.00 | 4.37 | 0.03 | 99 | 1010.2 |
| 20260505093603 | 10 | 59 | 8.0 | 11.3 | 0.00 | 4.37 | 0.03 | 99 | 1010.3 |
| 20260505092705 | 10 | 51 | 9.7 | 11.3 | 0.00 | 4.37 | 0.03 | 99 | 1010.4 |
| 20260505091804 | 10 | 71 | 8.0 | 9.7 | 0.00 | 4.37 | 0.03 | 99 | 1010.5 |
| 20260505091117 | 10 | 54 | 9.7 | 11.3 | 0.00 | 4.37 | 0.03 | 99 | 1010.5 |
| 20260505090007 | 10 | 35 | 9.7 | 9.7 | 0.00 | 4.37 | 0.03 | 99 | 1010.5 |
| 20260505085405 | 10 | 44 | 8.0 | 9.7 | 0.00 | 4.37 | 0.03 | 99 | 1010.4 |
| 20260505084503 | 10 | 38 | 8.0 | 11.3 | 0.00 | 4.37 | 0.03 | 99 | 1010.4 |
| 20260505083815 | 10 | 50 | 8.0 | 11.3 | 0.00 | 4.37 | 0.03 | 99 | 1010.8 |
| 20260505082705 | 10 | 21 | 8.0 | 8.0 | 0.00 | 4.37 | 0.03 | 99 | 1010.5 |
| 20260505081808 | 10 | 55 | 9.7 | 11.3 | 0.00 | 4.37 | 0.03 | 99 | 1010.6 |
| 20260505080904 | 11 | 58 | 6.4 | 9.7 | 0.00 | 4.37 | 0.03 | 99 | 1010.4 |
| 20260505080004 | 10 | 43 | 6.4 | 9.7 | 0.00 | 4.37 | 0.03 | 99 | 1010.5 |
| 20260505075403 | 10 | 56 | 6.4 | 8.0 | 0.00 | 4.37 | 0.03 | 99 | 1010.7 |
| 20260505074505 | 10 | 70 | 4.8 | 8.0 | 0.00 | 4.37 | 0.03 | 99 | 1010.7 |
| 20260505073603 | 10 | 39 | 6.4 | 8.0 | 0.00 | 4.37 | 0.03 | 99 | 1010.8 |
| 20260505072708 | 10 | 44 | 6.4 | 6.4 | 0.00 | 4.37 | 0.03 | 99 | 1010.8 |
| 20260505071805 | 10 | 34 | 6.4 | 8.0 | 0.00 | 4.37 | 0.03 | 99 | 1010.7 |
| 20260505070904 | 10 | 26 | 8.0 | 8.0 | 0.00 | 4.37 | 0.03 | 99 | 1010.6 |
| 20260505070004 | 10 | 28 | 6.4 | 9.7 | 0.00 | 4.37 | 0.03 | 99 | 1010.4 |
| 20260505065408 | 10 | 40 | 6.4 | 9.7 | 0.00 | 4.37 | 0.03 | 99 | 1010.4 |
| 20260505064719 | 10 | 16 | 6.4 | 8.0 | 0.00 | 4.37 | 0.03 | 99 | 1010.6 |
| 20260505063816 | 10 | 358 | 6.4 | 9.7 | 0.00 | 4.37 | 0.03 | 99 | 1010.7 |
| 20260505062703 | 10 | 25 | 6.4 | 8.0 | 0.00 | 4.37 | 0.03 | 99 | 1010.6 |
| 20260505061803 | 10 | 48 | 8.0 | 9.7 | 0.00 | 4.37 | 0.03 | 99 | 1010.8 |
| 20260505060903 | 10 | 42 | 9.7 | 8.0 | 0.00 | 4.37 | 0.03 | 98 | 1010.9 |
| 20260505060005 | 11 | 48 | 6.4 | 6.4 | 0.00 | 4.37 | 0.03 | 99 | 1010.9 |
| 20260505055405 | 11 | 58 | 6.4 | 8.0 | 0.00 | 4.37 | 0.03 | 99 | 1010.9 |
| 20260505054715 | 10 | 46 | 8.0 | 9.7 | 0.00 | 4.37 | 0.03 | 99 | 1011.0 |
| 20260505053604 | 11 | 26 | 6.4 | 12.9 | 0.00 | 4.37 | 0.03 | 99 | 1010.8 |
| 20260505052914 | 11 | 51 | 8.0 | 9.7 | 0.00 | 4.37 | 0.03 | 99 | 1010.5 |
| 20260505051805 | 11 | 30 | 6.4 | 9.7 | 0.00 | 4.37 | 0.03 | 99 | 1010.6 |
| 20260505051114 | 11 | 50 | 6.4 | 8.0 | 0.00 | 4.37 | 0.03 | 99 | 1010.8 |
| 20260505040903 | 11 | 36 | 4.8 | 4.8 | 0.00 | 4.37 | 0.03 | 99 | 1011.0 |
| 20260505040005 | 11 | 46 | 1.6 | 3.2 | 0.00 | 4.37 | 0.03 | 99 | 1010.9 |
| 20260505035403 | 11 | 46 | 1.6 | 3.2 | 0.00 | 4.37 | 0.03 | 99 | 1010.8 |
| 20260505034506 | 11 | 67 | 4.8 | 6.4 | 0.00 | 4.37 | 0.03 | 99 | 1010.8 |
| 20260505033605 | 11 | 67 | 6.4 | 8.0 | 0.00 | 4.37 | 0.03 | 99 | 1010.6 |
| 20260505032703 | 11 | 61 | 8.0 | 8.0 | 0.00 | 4.37 | 0.03 | 99 | 1011.0 |
| 20260505031803 | 11 | 45 | 6.4 | 8.0 | 0.00 | 4.37 | 0.03 | 99 | 1010.9 |
| 20260505030907 | 11 | 48 | 6.4 | 6.4 | 0.00 | 4.34 | 0.00 | 99 | 1010.8 |
| 20260505030218 | 11 | 47 | 8.0 | 9.7 | 0.00 | 4.34 | 0.00 | 99 | 1010.9 |
| 20260505025405 | 11 | 34 | 8.0 | 9.7 | 0.00 | 4.34 | 0.00 | 99 | 1010.9 |
| 20260505024508 | 11 | 36 | 8.0 | 11.3 | 0.00 | 4.34 | 0.00 | 99 | 1011.2 |
| 20260505023603 | 11 | 47 | 8.0 | 9.7 | 0.00 | 4.34 | 0.00 | 99 | 1011.0 |
| 20260505022703 | 11 | 40 | 6.4 | 8.0 | 0.00 | 4.34 | 0.00 | 99 | 1011.1 |
| 20260505021803 | 12 | 37 | 6.4 | 8.0 | 0.00 | 4.34 | 0.00 | 99 | 1011.2 |
| 20260505020905 | 12 | 39 | 8.0 | 11.3 | 0.00 | 4.34 | 0.00 | 99 | 1011.1 |
| 20260505020004 | 12 | 70 | 6.4 | 9.7 | 0.00 | 4.34 | 0.00 | 99 | 1011.1 |
| 20260505015615 | 12 | 59 | 8.0 | 9.7 | 0.00 | 4.34 | 0.00 | 99 | 1011.0 |
| 20260505014503 | 12 | 53 | 6.4 | 8.0 | 0.00 | 4.34 | 0.00 | 99 | 1011.0 |
| 20260505013605 | 12 | 41 | 9.7 | 12.9 | 0.00 | 4.34 | 0.00 | 99 | 1011.0 |
| 20260505012705 | 12 | 39 | 8.0 | 8.0 | 0.00 | 4.34 | 0.00 | 99 | 1010.9 |
| 20260505011804 | 12 | 57 | 9.7 | 16.1 | 0.00 | 4.34 | 0.00 | 99 | 1011.1 |
| 20260505010905 | 12 | 51 | 9.7 | 12.9 | 0.00 | 4.34 | 0.00 | 99 | 1010.9 |
| 20260505010005 | 12 | 42 | 9.7 | 12.9 | 0.00 | 4.34 | 0.00 | 99 | 1011.1 |
| 20260505005405 | 12 | 39 | 9.7 | 9.7 | 0.00 | 4.34 | 0.00 | 99 | 1011.1 |
| 20260505004506 | 12 | 36 | 8.0 | 9.7 | 0.00 | 4.34 | 0.00 | 99 | 1011.0 |
| 20260505003605 | 12 | 50 | 6.4 | 8.0 | 0.00 | 4.34 | 0.00 | 99 | 1011.4 |
| 20260505002704 | 12 | 32 | 8.0 | 8.0 | 0.00 | 4.34 | 0.00 | 99 | 1011.2 |
| 20260505001803 | 12 | 22 | 6.4 | 8.0 | 0.00 | 4.34 | 0.00 | 99 | 1011.3 |
| 20260505000907 | 12 | 28 | 4.8 | 6.4 | 0.00 | 4.34 | 0.00 | 99 | 1011.3 |
| 20260505000004 | 12 | 47 | 6.4 | 9.7 | 0.00 | 4.34 | 0.00 | 99 | 1011.3 |
| 20260504235404 | 12 | 57 | 4.8 | 9.7 | 0.00 | 4.34 | 0.00 | 99 | 1011.3 |
| 20260504234504 | 13 | 57 | 3.2 | 9.7 | 0.00 | 4.34 | 0.00 | 99 | 1011.6 |
| 20260504233605 | 13 | 46 | 3.2 | 4.8 | 0.00 | 4.34 | 0.00 | 99 | 1011.4 |
| 20260504232913 | 13 | 58 | 3.2 | 4.8 | 0.00 | 4.34 | 0.00 | 99 | 1011.5 |
| 20260504231803 | 13 | 55 | 6.4 | 8.0 | 0.00 | 4.34 | 0.00 | 99 | 1011.3 |
| 20260504231118 | 13 | 46 | 3.2 | 4.8 | 0.00 | 4.34 | 0.00 | 99 | 1011.7 |
| 20260504230215 | 13 | 82 | 1.6 | 3.2 | 0.00 | 4.34 | 0.00 | 99 | 1011.6 |
| 20260504225406 | 13 | 29 | 1.6 | 1.6 | 0.00 | 4.34 | 0.00 | 99 | 1011.6 |
| 20260504224508 | 13 | 35 | 1.6 | 4.8 | 0.00 | 4.34 | 0.00 | 99 | 1011.7 |
| 20260504223816 | 13 | 58 | 1.6 | 3.2 | 0.00 | 4.34 | 0.00 | 99 | 1011.6 |
| 20260504222705 | 13 | 259 | 3.2 | 4.8 | 0.00 | 4.34 | 0.00 | 99 | 1011.9 |
| 20260504221805 | 13 | 241 | 1.6 | 3.2 | 0.00 | 4.34 | 0.00 | 99 | 1011.9 |
| 20260504220903 | 13 | 240 | 1.6 | 3.2 | 0.00 | 4.34 | 0.00 | 99 | 1012.1 |
| 20260504220007 | 13 | 220 | 0.0 | 1.6 | 0.00 | 4.34 | 0.00 | 99 | 1012.2 |
| 20260504215403 | 13 | 236 | 0.0 | 3.2 | 0.00 | 4.27 | 4.27 | 99 | 1012.2 |
| 20260504214503 | 13 | 255 | 3.2 | 4.8 | 0.00 | 4.06 | 4.06 | 99 | 1012.1 |
| 20260504213603 | 13 | 234 | 3.2 | 4.8 | 0.00 | 3.84 | 3.84 | 99 | 1012.3 |
| 20260504212705 | 13 | 232 | 3.2 | 4.8 | 0.00 | 3.71 | 3.71 | 99 | 1012.3 |
| 20260504211803 | 13 | 180 | 1.6 | 4.8 | 0.00 | 3.58 | 3.58 | 99 | 1012.4 |
| 20260504211119 | 13 | 230 | 3.2 | 4.8 | 0.00 | 3.45 | 3.45 | 99 | 1012.2 |